COSMOS 2355

Satellite information

Favourite Embed

Satellite Type and Status

PAYLOADIN ORBIT

Key statistics

Satellite COSMOS 2355 at a glance.

Uptime

9826

Days in orbit

Revolutions

≈ 12.2

Per day

Orbit

LEO

Low Earth Orbit

Inclination

82.6

Latest

Satellite identification and parameters

Extended collection of information and parameters for COSMOS 2355.

Object identification

Identified? True

Debris? False

Object name: COSMOS 2355

International designator: 1998-036D

Object number (NORAD): 25366

Object ID (CCSDS): 25366

Country: COMMONWEALTH OF INDEPENDENT STATES (CIS)

Current information (Y/N): Y

RCS size: MEDIUM

Orbital parameters

Period: 117.858 minutes

Inclination: 82.5909 deg

SMA: 7962.812 km

Apoapsis: 1865.39 km

Periapsis: 1303.964 km

RAAN: 219.7644 deg

Eccentricy: 0.035253

Argument of periapsis: 325.0133 deg

Mean anomaly: 165.5006 deg

Mean motion: 12.21808388 rev/day

Mean motion (dot): 0.00000001 rev/day2

B* drag term: -0.000052892 1/REarth

Two-line elements (TLE)

Creation date: May 10, 2025, 2:32 a.m.

Reference frame: TEME

Reference center: EARTH

Epoch: May 9, 2025, 5:46 p.m. UTC

TLE line 0: 0 COSMOS 2355

TLE line 1: 1 25366U 98036D 25129.74057115 .00000001 00000-0 -52892-4 0 9999

TLE line 2: 2 25366 82.5909 219.7644 0352530 325.0133 165.5006 12.21808388199750

Live tracking on map

Real-time ground track for satellite COSMOS 2355.

In-orbit conjunctions

There are no conjunctions computed for COSMOS 2355, at the moment. Check back to stay up to date, as we update our databases every day.

Go to all conjunctions

Associated space launch

Second generation store-dump military communications satellites

COSMOS 2355 was lifted into orbit during the mission ‘Tsiklon-3 | Strela-3 119 to 124’, on board a Tsiklon-3 space rocket.

The launch took place on June 15, 1998, 10:58 p.m. from 32/1.

For more information about the launch, click the button.

Launch to space Tsiklon-3 | Strela-3 119 to 124
Tsiklon-3 | Strela-3 119 to 124

Agency: N/A

Status: Launch Successful

Launch date: June 15, 1998, 10:58 p.m. UTC

Rocket: Tsiklon-3

Launch pad: 32/1

Location: Plesetsk Cosmodrome, Russian Federation

...

Latest news about this satellite

There are no fresh news available about this satellite. Check back as we update our databases every day.


Newsletter sign-up

Weekly statistics, charts and insights to help you stay on top of the space industry.